sat.trackr.live / text

‹ back to catalog

STARLINK-30286

NORAD 57647 · 2023-122R

PAYLOAD ACTIVE UNKNOWN

§ Identity

Operator
Country
US
Launch date
2023-08-17
Launch site
AFETR
Launch vehicle
Mass (kg)
RCS (m²)

Purposes: comms

External: N2YO · Heavens-Above · Gunter

§ Orbital elements

Epoch: 2026-05-25T00:42:41.425632Z

Period
94.27 min
Inclination
43.0038°
Eccentricity
0.0001343
Mean motion
15.27597280 rev/d
Perigee alt
482.1 km
Apogee alt
483.9 km
Semi-major
6,861.1 km
B*
1.1477e-4
RAAN
21.2460°
Arg perigee
279.1554°
Mean anomaly
80.9146°
Rev number
15,388

§ Raw data

STARLINK-302861 57647U 23122R   26145.02964613  .00002899  00000+0  11477-3 0  99982 57647  43.0038  21.2460 0001343 279.1554  80.9146 15.27597280153887

JSON: /api/v1/satellites/57647 · /tle

For live sub-satellite position, see the globe view (requires WebGL).

§ Visibility from observer

Set your observer location to see the next 7 days of passes ≥ 10°. The values pass through the URL so the page stays shareable.

No JS? Fill the form by hand. The geolocation button needs JavaScript.